Time,TemperatureF,DewpointF,PressureIn,WindDirection,WindDirectionDegrees,WindSpeedMPH,WindSpeedGustMPH,Humidity,HourlyPrecipIn,Conditions,Clouds,dailyrainin,SoftwareType,DateUTC
2013-03-15 00:05:00,38.8,25.1,30.08,SE,135,4.5,7.6,46,0.00,,,0.01,fowsr,2013-03-15 04:05:00,
2013-03-15 00:10:00,38.7,24.6,30.08,East,90,7.6,10.7,45,0.00,,,0.01,fowsr,2013-03-15 04:10:00,
2013-03-15 00:15:00,38.7,24.6,30.09,East,90,3.1,6.9,45,0.00,,,0.01,fowsr,2013-03-15 04:15:00,
2013-03-15 00:20:00,38.7,24.2,30.09,South,180,6.0,11.4,44,0.00,,,0.01,fowsr,2013-03-15 04:20:00,
2013-03-15 00:25:00,38.5,24.4,30.08,East,90,8.3,11.4,45,0.00,,,0.01,fowsr,2013-03-15 04:25:00,
2013-03-15 00:30:00,38.5,24.4,30.08,East,90,5.4,9.8,45,0.00,,,0.01,fowsr,2013-03-15 04:30:00,
2013-03-15 00:35:00,38.5,24.4,30.08,SE,135,5.4,11.4,45,0.00,,,0.01,fowsr,2013-03-15 04:35:00,
2013-03-15 00:40:00,38.5,24.4,30.09,East,90,6.0,10.7,45,0.00,,,0.01,fowsr,2013-03-15 04:40:00,
2013-03-15 00:45:00,38.3,24.2,30.09,SE,135,5.4,9.2,45,0.00,,,0.01,fowsr,2013-03-15 04:45:00,
2013-03-15 00:50:00,38.3,22.7,30.09,ESE,112,5.4,8.3,41,0.00,,,0.01,fowsr,2013-03-15 04:50:00,
2013-03-15 00:55:00,38.3,24.2,30.09,SE,135,2.2,5.4,45,0.00,,,0.01,fowsr,2013-03-15 04:55:00,
2013-03-15 01:00:00,38.1,24.1,30.09,SW,225,5.4,12.1,45,0.00,,,0.01,fowsr,2013-03-15 05:00:00,
2013-03-15 01:05:00,38.1,23.3,30.09,SE,135,6.0,10.7,43,0.00,,,0.01,fowsr,2013-03-15 05:05:00,
2013-03-15 01:10:00,37.9,23.9,30.09,SE,135,6.0,8.3,45,0.00,,,0.01,fowsr,2013-03-15 05:10:00,
2013-03-15 01:15:00,37.9,23.9,30.09,East,90,4.5,8.3,45,0.00,,,0.01,fowsr,2013-03-15 05:15:00,
2013-03-15 01:20:00,37.9,22.8,30.09,NW,315,3.1,6.0,42,0.00,,,0.01,fowsr,2013-03-15 05:20:00,
2013-03-15 01:25:00,37.9,22.4,30.09,SE,135,6.9,9.8,41,0.00,,,0.01,fowsr,2013-03-15 05:25:00,
2013-03-15 01:30:00,37.8,23.0,30.09,NE,45,6.0,15.2,43,0.00,,,0.01,fowsr,2013-03-15 05:30:00,
2013-03-15 01:35:00,37.8,22.6,30.09,East,90,8.3,14.5,42,0.00,,,0.01,fowsr,2013-03-15 05:35:00,
2013-03-15 01:40:00,37.8,22.2,30.09,SE,135,8.3,12.1,41,0.00,,,0.01,fowsr,2013-03-15 05:40:00,
2013-03-15 01:45:00,37.8,21.8,30.09,SE,135,4.5,9.8,40,0.00,,,0.01,fowsr,2013-03-15 05:45:00,
2013-03-15 01:50:00,37.6,21.2,30.09,SE,135,3.1,5.4,39,0.00,,,0.01,fowsr,2013-03-15 05:50:00,
2013-03-15 01:55:00,37.6,23.2,30.09,East,90,4.5,8.3,44,0.00,,,0.01,fowsr,2013-03-15 05:55:00,
2013-03-15 02:00:00,37.4,21.9,30.10,SE,135,6.9,11.4,41,0.00,,,0.01,fowsr,2013-03-15 06:00:00,
2013-03-15 02:05:00,37.4,21.1,30.09,SE,135,3.8,6.9,39,0.00,,,0.01,fowsr,2013-03-15 06:05:00,
2013-03-15 02:10:00,37.4,23.4,30.10,SE,135,6.0,9.8,45,0.00,,,0.01,fowsr,2013-03-15 06:10:00,
2013-03-15 02:15:00,37.2,20.5,30.09,ENE,67,4.5,8.3,38,0.00,,,0.01,fowsr,2013-03-15 06:15:00,
2013-03-15 02:20:00,37.2,21.7,30.09,South,180,6.9,9.8,41,0.00,,,0.01,fowsr,2013-03-15 06:20:00,
2013-03-15 02:30:00,37.0,19.5,30.09,SE,135,5.4,9.2,36,0.00,,,0.01,fowsr,2013-03-15 06:30:00,
2013-03-15 02:35:00,37.0,19.5,30.10,SE,135,9.2,17.4,36,0.00,,,0.01,fowsr,2013-03-15 06:35:00,
2013-03-15 02:40:00,37.0,20.3,30.09,SE,135,4.5,6.9,38,0.00,,,0.01,fowsr,2013-03-15 06:40:00,
2013-03-15 02:50:00,36.9,19.7,30.09,East,90,4.5,11.4,37,0.00,,,0.01,fowsr,2013-03-15 06:50:00,
2013-03-15 02:55:00,36.9,21.4,30.09,SE,135,6.9,9.8,41,0.00,,,0.01,fowsr,2013-03-15 06:55:00,
2013-03-15 03:05:00,36.7,19.6,30.09,NE,45,3.1,6.0,37,0.00,,,0.01,fowsr,2013-03-15 07:05:00,
2013-03-15 03:10:00,36.7,19.6,30.09,East,90,3.8,10.7,37,0.00,,,0.01,fowsr,2013-03-15 07:10:00,
2013-03-15 03:15:00,36.5,19.4,30.09,NE,45,4.5,7.6,37,0.00,,,0.01,fowsr,2013-03-15 07:15:00,
2013-03-15 03:25:00,36.5,19.0,30.09,NE,45,2.2,4.5,36,0.00,,,0.01,fowsr,2013-03-15 07:25:00,
2013-03-15 03:35:00,36.5,19.0,30.09,NW,315,5.4,8.3,36,0.00,,,0.01,fowsr,2013-03-15 07:35:00,
2013-03-15 03:40:00,36.3,20.1,30.09,SE,135,9.8,13.6,39,0.00,,,0.01,fowsr,2013-03-15 07:40:00,
2013-03-15 03:45:00,36.3,18.8,30.09,SE,135,2.2,3.8,36,0.00,,,0.01,fowsr,2013-03-15 07:45:00,
2013-03-15 03:55:00,36.3,18.8,30.09,NW,315,5.4,9.8,36,0.00,,,0.01,fowsr,2013-03-15 07:55:00,
2013-03-15 04:00:00,36.1,17.8,30.09,NE,45,4.5,6.9,34,0.00,,,0.01,fowsr,2013-03-15 08:00:00,
2013-03-15 04:05:00,36.1,17.8,30.09,SE,135,3.8,7.6,34,0.00,,,0.01,fowsr,2013-03-15 08:05:00,
2013-03-15 04:10:00,36.0,17.1,30.09,East,90,3.8,6.9,33,0.00,,,0.01,fowsr,2013-03-15 08:10:00,
2013-03-15 04:15:00,36.0,18.1,30.09,SE,135,2.2,3.8,35,0.00,,,0.01,fowsr,2013-03-15 08:15:00,
2013-03-15 04:20:00,36.0,18.1,30.09,SE,135,5.4,10.7,35,0.00,,,0.01,fowsr,2013-03-15 08:20:00,
2013-03-15 04:25:00,36.0,18.1,30.09,East,90,4.5,7.6,35,0.00,,,0.01,fowsr,2013-03-15 08:25:00,
2013-03-15 04:30:00,35.8,19.2,30.09,South,180,3.1,4.5,38,0.00,,,0.01,fowsr,2013-03-15 08:30:00,
2013-03-15 04:35:00,35.8,18.4,30.09,NE,45,6.9,9.8,36,0.00,,,0.01,fowsr,2013-03-15 08:35:00,
2013-03-15 04:45:00,35.6,17.7,30.09,North,0,2.2,4.5,35,0.00,,,0.01,fowsr,2013-03-15 08:45:00,
2013-03-15 04:50:00,35.6,18.6,30.09,ENE,67,2.2,4.5,37,0.00,,,0.01,fowsr,2013-03-15 08:50:00,
2013-03-15 04:55:00,35.6,19.1,30.09,SE,135,3.8,7.6,38,0.00,,,0.01,fowsr,2013-03-15 08:55:00,
2013-03-15 05:05:00,35.6,19.5,30.09,SW,225,6.0,9.8,39,0.00,,,0.01,fowsr,2013-03-15 09:05:00,
2013-03-15 05:10:00,35.6,18.6,30.09,NE,45,3.8,9.8,37,0.00,,,0.01,fowsr,2013-03-15 09:10:00,
2013-03-15 05:20:00,35.2,17.9,30.09,SE,135,3.1,4.5,36,0.00,,,0.01,fowsr,2013-03-15 09:20:00,
2013-03-15 05:25:00,35.2,18.7,30.10,SE,135,2.2,4.5,38,0.00,,,0.01,fowsr,2013-03-15 09:25:00,
2013-03-15 05:30:00,35.2,18.3,30.09,SE,135,6.0,10.7,37,0.00,,,0.01,fowsr,2013-03-15 09:30:00,
2013-03-15 05:35:00,35.2,17.9,30.10,South,180,2.2,5.4,36,0.00,,,0.01,fowsr,2013-03-15 09:35:00,
2013-03-15 05:40:00,35.2,17.4,30.10,East,90,4.5,9.2,35,0.00,,,0.01,fowsr,2013-03-15 09:40:00,
2013-03-15 05:45:00,35.2,17.0,30.10,South,180,2.2,3.8,34,0.00,,,0.01,fowsr,2013-03-15 09:45:00,
2013-03-15 05:55:00,35.1,18.2,30.10,SE,135,2.2,4.5,37,0.00,,,0.01,fowsr,2013-03-15 09:55:00,
2013-03-15 06:05:00,35.1,18.2,30.10,South,180,2.2,6.9,37,0.00,,,0.01,fowsr,2013-03-15 10:05:00,
2013-03-15 06:10:00,34.9,18.0,30.11,SE,135,5.4,9.8,37,0.00,,,0.01,fowsr,2013-03-15 10:10:00,
2013-03-15 06:15:00,35.1,18.6,30.11,South,180,2.2,3.8,38,0.00,,,0.01,fowsr,2013-03-15 10:15:00,
2013-03-15 06:20:00,34.9,18.4,30.11,East,90,3.1,4.5,38,0.00,,,0.01,fowsr,2013-03-15 10:20:00,
2013-03-15 06:25:00,34.9,18.8,30.11,SE,135,3.1,5.4,39,0.00,,,0.01,fowsr,2013-03-15 10:25:00,
2013-03-15 06:30:00,34.9,18.8,30.11,South,180,4.5,6.0,39,0.00,,,0.01,fowsr,2013-03-15 10:30:00,
2013-03-15 06:40:00,34.7,18.7,30.11,SW,225,0.0,2.2,39,0.00,,,0.01,fowsr,2013-03-15 10:40:00,
2013-03-15 06:45:00,34.5,18.9,30.11,North,0,2.2,4.5,40,0.00,,,0.01,fowsr,2013-03-15 10:45:00,
2013-03-15 06:50:00,34.5,18.5,30.11,East,90,0.7,2.2,39,0.00,,,0.00,fowsr,2013-03-15 10:50:00,
2013-03-15 06:55:00,34.5,18.9,30.11,WSW,247,2.2,3.8,40,0.00,,,0.00,fowsr,2013-03-15 10:55:00,
2013-03-15 07:00:00,34.3,19.6,30.11,SE,135,2.2,5.4,42,0.00,,,0.00,fowsr,2013-03-15 11:00:00,
2013-03-15 07:05:00,34.3,19.6,30.11,South,180,2.2,5.4,42,0.00,,,0.00,fowsr,2013-03-15 11:05:00,
2013-03-15 07:10:00,34.7,19.1,30.11,South,180,3.8,7.6,40,0.00,,,0.00,fowsr,2013-03-15 11:10:00,
2013-03-15 07:15:00,34.9,19.2,30.11,SSE,157,3.1,3.8,40,0.00,,,0.00,fowsr,2013-03-15 11:15:00,
2013-03-15 07:20:00,34.7,19.9,30.11,ESE,112,3.1,6.9,42,0.00,,,0.00,fowsr,2013-03-15 11:20:00,
2013-03-15 07:25:00,34.9,20.0,30.11,SSE,157,1.6,3.1,42,0.00,,,0.00,fowsr,2013-03-15 11:25:00,
2013-03-15 07:30:00,35.1,20.2,30.11,East,90,0.7,2.2,42,0.00,,,0.00,fowsr,2013-03-15 11:30:00,
2013-03-15 07:35:00,35.1,20.2,30.11,SE,135,3.1,4.5,42,0.00,,,0.00,fowsr,2013-03-15 11:35:00,
2013-03-15 07:40:00,35.4,20.9,30.12,East,90,0.7,2.2,43,0.00,,,0.00,fowsr,2013-03-15 11:40:00,
2013-03-15 07:45:00,35.8,21.2,30.11,SE,135,2.2,5.4,43,0.00,,,0.00,fowsr,2013-03-15 11:45:00,
2013-03-15 07:50:00,36.0,21.4,30.11,East,90,2.2,5.4,43,0.00,,,0.00,fowsr,2013-03-15 11:50:00,
2013-03-15 07:55:00,36.1,21.9,30.11,East,90,3.1,4.5,44,0.00,,,0.00,fowsr,2013-03-15 11:55:00,
2013-03-15 08:00:00,36.3,22.1,30.11,East,90,3.1,6.0,44,0.00,,,0.00,fowsr,2013-03-15 12:00:00,
2013-03-15 08:05:00,36.3,22.1,30.12,ESE,112,3.1,4.5,44,0.00,,,0.00,fowsr,2013-03-15 12:05:00,
2013-03-15 08:10:00,36.1,21.9,30.11,East,90,3.1,4.5,44,0.00,,,0.00,fowsr,2013-03-15 12:10:00,
2013-03-15 08:15:00,36.1,22.3,30.12,East,90,4.5,7.6,45,0.00,,,0.00,fowsr,2013-03-15 12:15:00,
2013-03-15 08:20:00,36.3,22.1,30.11,East,90,3.1,6.0,44,0.00,,,0.00,fowsr,2013-03-15 12:20:00,
2013-03-15 08:25:00,36.3,22.5,30.11,East,90,2.2,6.0,45,0.00,,,0.00,fowsr,2013-03-15 12:25:00,
2013-03-15 08:30:00,36.5,22.6,30.11,SE,135,3.1,5.4,45,0.00,,,0.00,fowsr,2013-03-15 12:30:00,
2013-03-15 08:35:00,36.7,22.8,30.11,East,90,2.2,3.8,45,0.00,,,0.00,fowsr,2013-03-15 12:35:00,
2013-03-15 08:40:00,37.0,23.5,30.12,East,90,2.2,4.5,46,0.00,,,0.00,fowsr,2013-03-15 12:40:00,
2013-03-15 08:45:00,37.6,25.4,30.12,East,90,4.5,6.9,50,0.00,,,0.00,fowsr,2013-03-15 12:45:00,
2013-03-15 08:50:00,37.9,25.7,30.11,East,90,3.1,4.5,50,0.00,,,0.00,fowsr,2013-03-15 12:50:00,
2013-03-15 08:55:00,38.1,25.8,30.11,East,90,5.4,7.6,50,0.00,,,0.00,fowsr,2013-03-15 12:55:00,
2013-03-15 09:00:00,38.3,26.3,30.11,NE,45,4.5,6.0,51,0.00,,,0.00,fowsr,2013-03-15 13:00:00,
2013-03-15 09:05:00,38.3,26.0,30.11,East,90,3.1,4.5,50,0.00,,,0.00,fowsr,2013-03-15 13:05:00,
2013-03-15 09:10:00,38.5,26.2,30.11,East,90,3.8,6.9,50,0.00,,,0.00,fowsr,2013-03-15 13:10:00,
2013-03-15 09:15:00,38.7,26.3,30.11,NE,45,5.4,8.3,50,0.00,,,0.00,fowsr,2013-03-15 13:15:00,
2013-03-15 09:20:00,39.2,26.5,30.11,East,90,5.4,10.7,49,0.00,,,0.00,fowsr,2013-03-15 13:20:00,
2013-03-15 09:25:00,39.6,27.2,30.10,East,90,5.4,8.3,50,0.00,,,0.00,fowsr,2013-03-15 13:25:00,
2013-03-15 09:30:00,39.4,26.7,30.10,East,90,4.5,7.6,49,0.00,,,0.00,fowsr,2013-03-15 13:30:00,
2013-03-15 09:35:00,39.2,26.5,30.10,ESE,112,6.9,9.8,49,0.00,,,0.00,fowsr,2013-03-15 13:35:00,
2013-03-15 09:40:00,39.0,27.3,30.10,East,90,3.8,6.0,52,0.00,,,0.00,fowsr,2013-03-15 13:40:00,
2013-03-15 09:45:00,39.2,27.2,30.10,East,90,3.8,6.0,51,0.00,,,0.00,fowsr,2013-03-15 13:45:00,
2013-03-15 09:50:00,39.9,27.8,30.10,East,90,3.8,6.9,51,0.00,,,0.00,fowsr,2013-03-15 13:50:00,
2013-03-15 09:55:00,40.1,28.0,30.09,SE,135,5.4,7.6,51,0.00,,,0.00,fowsr,2013-03-15 13:55:00,
2013-03-15 10:00:00,40.5,28.0,30.09,East,90,4.5,7.6,50,0.00,,,0.00,fowsr,2013-03-15 14:00:00,
2013-03-15 10:05:00,40.5,27.6,30.08,East,90,4.5,6.9,49,0.00,,,0.00,fowsr,2013-03-15 14:05:00,
2013-03-15 10:10:00,40.1,27.7,30.08,East,90,4.5,6.9,50,0.00,,,0.00,fowsr,2013-03-15 14:10:00,
2013-03-15 10:15:00,40.5,28.3,30.08,ENE,67,6.0,12.1,51,0.00,,,0.00,fowsr,2013-03-15 14:15:00,
2013-03-15 10:20:00,40.3,27.8,30.08,East,90,5.4,7.6,50,0.00,,,0.00,fowsr,2013-03-15 14:20:00,
2013-03-15 10:25:00,40.1,28.0,30.08,East,90,5.4,8.3,51,0.00,,,0.00,fowsr,2013-03-15 14:25:00,
2013-03-15 10:30:00,40.1,28.3,30.08,East,90,7.6,9.8,52,0.00,,,0.00,fowsr,2013-03-15 14:30:00,
2013-03-15 10:35:00,40.1,28.0,30.07,NE,45,4.5,9.2,51,0.00,,,0.00,fowsr,2013-03-15 14:35:00,
2013-03-15 10:40:00,40.5,28.0,30.07,East,90,5.4,7.6,50,0.00,,,0.00,fowsr,2013-03-15 14:40:00,
2013-03-15 10:45:00,41.0,28.1,30.07,East,90,5.4,7.6,49,0.00,,,0.00,fowsr,2013-03-15 14:45:00,
2013-03-15 10:50:00,41.5,28.6,30.07,East,90,3.1,5.4,49,0.00,,,0.00,fowsr,2013-03-15 14:50:00,
2013-03-15 10:55:00,41.4,27.7,30.07,ESE,112,6.0,10.7,47,0.00,,,0.00,fowsr,2013-03-15 14:55:00,
2013-03-15 11:00:00,41.5,28.3,30.07,NE,45,5.4,9.8,48,0.00,,,0.00,fowsr,2013-03-15 15:00:00,
2013-03-15 11:05:00,41.5,27.9,30.07,East,90,6.9,9.8,47,0.00,,,0.00,fowsr,2013-03-15 15:05:00,
2013-03-15 11:10:00,41.7,28.4,30.07,SE,135,8.3,11.4,48,0.00,,,0.00,fowsr,2013-03-15 15:10:00,
2013-03-15 11:15:00,42.1,28.8,30.06,East,90,6.9,11.4,48,0.00,,,0.00,fowsr,2013-03-15 15:15:00,
2013-03-15 11:20:00,41.9,28.2,30.06,NE,45,3.1,5.4,47,0.00,,,0.00,fowsr,2013-03-15 15:20:00,
2013-03-15 11:25:00,42.3,28.6,30.06,SE,135,6.0,11.4,47,0.00,,,0.00,fowsr,2013-03-15 15:25:00,
2013-03-15 11:30:00,42.4,29.1,30.05,East,90,3.8,6.0,48,0.00,,,0.00,fowsr,2013-03-15 15:30:00,
2013-03-15 11:35:00,42.4,28.7,30.05,ENE,67,4.5,6.9,47,0.00,,,0.00,fowsr,2013-03-15 15:35:00,
2013-03-15 11:40:00,43.2,29.4,30.05,NE,45,5.4,8.3,47,0.00,,,0.00,fowsr,2013-03-15 15:40:00,
2013-03-15 11:45:00,43.7,29.5,30.04,SE,135,3.8,6.9,46,0.00,,,0.00,fowsr,2013-03-15 15:45:00,
2013-03-15 11:50:00,44.1,29.4,30.04,East,90,6.0,10.7,45,0.00,,,0.00,fowsr,2013-03-15 15:50:00,
2013-03-15 11:55:00,44.4,29.7,30.03,East,90,4.5,6.0,45,0.00,,,0.00,fowsr,2013-03-15 15:55:00,
2013-03-15 12:00:00,44.8,29.7,30.04,East,90,3.8,6.0,44,0.00,,,0.00,fowsr,2013-03-15 16:00:00,
2013-03-15 12:05:00,44.8,29.3,30.03,North,0,8.3,13.0,43,0.00,,,0.00,fowsr,2013-03-15 16:05:00,
2013-03-15 12:10:00,44.6,29.1,30.03,NE,45,7.6,12.1,43,0.00,,,0.00,fowsr,2013-03-15 16:10:00,
2013-03-15 12:15:00,45.1,30.0,30.03,East,90,6.0,7.6,44,0.00,,,0.00,fowsr,2013-03-15 16:15:00,
2013-03-15 12:20:00,45.5,29.9,30.02,SE,135,6.9,12.1,43,0.00,,,0.00,fowsr,2013-03-15 16:20:00,
2013-03-15 12:25:00,45.5,29.9,30.02,North,0,3.8,5.4,43,0.00,,,0.00,fowsr,2013-03-15 16:25:00,
2013-03-15 12:30:00,45.7,30.1,30.02,East,90,5.4,8.3,43,0.00,,,0.00,fowsr,2013-03-15 16:30:00,
2013-03-15 12:35:00,46.2,31.0,30.02,East,90,3.8,6.0,44,0.00,,,0.00,fowsr,2013-03-15 16:35:00,
2013-03-15 12:40:00,46.4,30.3,30.01,East,90,6.0,8.3,42,0.00,,,0.00,fowsr,2013-03-15 16:40:00,
2013-03-15 12:45:00,46.0,30.4,30.01,NE,45,6.0,8.3,43,0.00,,,0.00,fowsr,2013-03-15 16:45:00,
2013-03-15 12:50:00,46.2,31.0,30.01,NE,45,3.8,5.4,44,0.00,,,0.00,fowsr,2013-03-15 16:50:00,
2013-03-15 12:55:00,46.4,31.5,30.00,East,90,6.0,10.7,45,0.00,,,0.00,fowsr,2013-03-15 16:55:00,
2013-03-15 13:00:00,46.6,31.7,30.00,East,90,5.4,7.6,45,0.00,,,0.00,fowsr,2013-03-15 17:00:00,
2013-03-15 13:05:00,46.4,31.9,29.99,East,90,4.5,6.9,46,0.00,,,0.00,fowsr,2013-03-15 17:05:00,
2013-03-15 13:10:00,46.9,33.2,29.99,NE,45,6.0,9.2,48,0.00,,,0.00,fowsr,2013-03-15 17:10:00,
2013-03-15 13:15:00,48.0,33.8,30.00,East,90,6.0,8.3,47,0.00,,,0.00,fowsr,2013-03-15 17:15:00,
2013-03-15 13:20:00,48.0,33.4,29.99,ESE,112,5.4,8.3,46,0.00,,,0.00,fowsr,2013-03-15 17:20:00,
2013-03-15 13:25:00,47.3,32.3,29.99,East,90,5.4,7.6,45,0.00,,,0.00,fowsr,2013-03-15 17:25:00,
2013-03-15 13:30:00,46.9,31.2,29.99,NE,45,4.5,5.4,43,0.00,,,0.00,fowsr,2013-03-15 17:30:00,
2013-03-15 13:35:00,46.9,31.6,29.99,East,90,5.4,9.8,44,0.00,,,0.00,fowsr,2013-03-15 17:35:00,
2013-03-15 13:40:00,46.8,32.2,29.98,East,90,7.6,10.7,46,0.00,,,0.00,fowsr,2013-03-15 17:40:00,
2013-03-15 13:45:00,46.6,32.8,29.98,East,90,5.4,8.3,48,0.00,,,0.00,fowsr,2013-03-15 17:45:00,
2013-03-15 13:50:00,46.8,32.6,29.98,East,90,5.4,7.6,47,0.00,,,0.00,fowsr,2013-03-15 17:50:00,
2013-03-15 13:55:00,46.9,32.8,29.98,SE,135,4.5,8.3,47,0.00,,,0.00,fowsr,2013-03-15 17:55:00,
2013-03-15 14:00:00,46.9,33.2,29.97,East,90,5.4,7.6,48,0.00,,,0.00,fowsr,2013-03-15 18:00:00,
2013-03-15 14:05:00,46.9,33.5,29.97,NE,45,4.5,6.9,49,0.00,,,0.00,fowsr,2013-03-15 18:05:00,
2013-03-15 14:10:00,47.1,33.3,29.96,SE,135,5.4,8.3,48,0.00,,,0.00,fowsr,2013-03-15 18:10:00,
2013-03-15 14:15:00,47.7,33.4,29.96,SE,135,3.1,5.4,47,0.00,,,0.00,fowsr,2013-03-15 18:15:00,
2013-03-15 14:20:00,48.7,33.6,29.95,East,90,4.5,6.9,45,0.00,,,0.00,fowsr,2013-03-15 18:20:00,
2013-03-15 14:25:00,48.9,33.4,29.95,NE,45,2.2,3.8,44,0.00,,,0.00,fowsr,2013-03-15 18:25:00,
2013-03-15 14:30:00,49.5,33.9,29.95,NE,45,3.1,3.8,44,0.00,,,0.00,fowsr,2013-03-15 18:30:00,
2013-03-15 14:35:00,49.6,33.2,29.95,South,180,3.1,4.5,42,0.00,,,0.00,fowsr,2013-03-15 18:35:00,
2013-03-15 14:40:00,49.6,33.2,29.94,East,90,3.8,7.6,42,0.00,,,0.00,fowsr,2013-03-15 18:40:00,
2013-03-15 14:45:00,50.5,34.4,29.93,East,90,4.5,7.6,43,0.00,,,0.00,fowsr,2013-03-15 18:45:00,
2013-03-15 14:50:00,50.7,32.8,29.93,North,0,5.4,7.6,39,0.00,,,0.00,fowsr,2013-03-15 18:50:00,
2013-03-15 14:55:00,50.5,33.1,29.93,SE,135,5.4,7.6,40,0.00,,,0.00,fowsr,2013-03-15 18:55:00,
2013-03-15 15:00:00,50.2,34.1,29.93,North,0,6.0,7.6,43,0.00,,,0.00,fowsr,2013-03-15 19:00:00,
2013-03-15 15:05:00,50.5,34.8,29.93,NE,45,6.0,6.9,44,0.00,,,0.00,fowsr,2013-03-15 19:05:00,
2013-03-15 15:10:00,51.3,35.9,29.93,NE,45,3.8,5.4,45,0.00,,,0.00,fowsr,2013-03-15 19:10:00,
2013-03-15 15:15:00,51.3,35.1,29.92,East,90,6.0,9.8,43,0.00,,,0.00,fowsr,2013-03-15 19:15:00,
2013-03-15 15:20:00,51.6,35.4,29.92,NNW,337,4.5,8.3,43,0.00,,,0.00,fowsr,2013-03-15 19:20:00,
2013-03-15 15:25:00,51.3,35.5,29.92,North,0,4.5,8.3,44,0.00,,,0.00,fowsr,2013-03-15 19:25:00,
2013-03-15 15:30:00,51.3,35.5,29.92,North,0,8.3,11.4,44,0.00,,,0.00,fowsr,2013-03-15 19:30:00,
2013-03-15 15:35:00,51.4,35.2,29.92,NE,45,4.5,6.9,43,0.00,,,0.00,fowsr,2013-03-15 19:35:00,
2013-03-15 15:40:00,51.3,35.1,29.91,East,90,5.4,9.2,43,0.00,,,0.00,fowsr,2013-03-15 19:40:00,
2013-03-15 15:45:00,51.1,34.5,29.91,East,90,6.0,11.4,42,0.00,,,0.00,fowsr,2013-03-15 19:45:00,
2013-03-15 15:50:00,51.3,35.1,29.91,SE,135,2.2,4.5,43,0.00,,,0.00,fowsr,2013-03-15 19:50:00,
2013-03-15 15:55:00,51.4,34.4,29.91,East,90,4.5,7.6,41,0.00,,,0.00,fowsr,2013-03-15 19:55:00,
2013-03-15 16:00:00,51.6,33.6,29.90,East,90,6.0,11.4,39,0.00,,,0.00,fowsr,2013-03-15 20:00:00,
2013-03-15 16:05:00,51.3,32.4,29.90,North,0,4.5,8.3,37,0.00,,,0.00,fowsr,2013-03-15 20:05:00,
2013-03-15 16:10:00,51.4,32.0,29.90,NE,45,6.9,12.1,36,0.00,,,0.00,fowsr,2013-03-15 20:10:00,
2013-03-15 16:15:00,51.1,31.7,29.90,NE,45,5.4,9.2,36,0.00,,,0.00,fowsr,2013-03-15 20:15:00,
2013-03-15 16:20:00,51.1,32.7,29.90,East,90,6.0,12.1,38,0.00,,,0.00,fowsr,2013-03-15 20:20:00,
2013-03-15 16:25:00,50.9,31.6,29.90,NE,45,6.9,11.4,36,0.00,,,0.00,fowsr,2013-03-15 20:25:00,
2013-03-15 16:30:00,50.9,31.1,29.90,East,90,4.5,6.9,35,0.00,,,0.00,fowsr,2013-03-15 20:30:00,
2013-03-15 16:35:00,50.7,31.9,29.89,East,90,6.0,8.3,37,0.00,,,0.00,fowsr,2013-03-15 20:35:00,
2013-03-15 16:40:00,50.9,32.5,29.89,NE,45,3.8,6.9,38,0.00,,,0.00,fowsr,2013-03-15 20:40:00,
2013-03-15 16:45:00,50.7,31.9,29.89,North,0,4.5,6.9,37,0.00,,,0.00,fowsr,2013-03-15 20:45:00,
2013-03-15 16:50:00,50.7,31.9,29.88,East,90,3.1,6.0,37,0.00,,,0.00,fowsr,2013-03-15 20:50:00,
2013-03-15 16:55:00,50.7,32.4,29.88,NE,45,6.0,11.4,38,0.00,,,0.00,fowsr,2013-03-15 20:55:00,
2013-03-15 17:00:00,50.7,31.9,29.88,East,90,9.2,12.1,37,0.00,,,0.00,fowsr,2013-03-15 21:00:00,
2013-03-15 17:05:00,50.4,32.0,29.88,NE,45,3.8,5.4,38,0.00,,,0.00,fowsr,2013-03-15 21:05:00,
2013-03-15 17:10:00,50.4,32.0,29.88,East,90,5.4,9.2,38,0.00,,,0.00,fowsr,2013-03-15 21:10:00,
2013-03-15 17:15:00,50.2,32.8,29.87,NE,45,6.0,9.8,40,0.00,,,0.00,fowsr,2013-03-15 21:15:00,
2013-03-15 17:20:00,50.2,32.8,29.87,SE,135,4.5,8.3,40,0.00,,,0.00,fowsr,2013-03-15 21:20:00,
2013-03-15 17:25:00,50.2,33.2,29.87,NE,45,6.0,11.4,41,0.00,,,0.00,fowsr,2013-03-15 21:25:00,
2013-03-15 17:30:00,49.8,34.2,29.87,North,0,4.5,6.9,44,0.00,,,0.00,fowsr,2013-03-15 21:30:00,
2013-03-15 17:35:00,49.6,33.6,29.87,NE,45,6.0,11.4,43,0.00,,,0.00,fowsr,2013-03-15 21:35:00,
2013-03-15 17:40:00,49.3,33.7,29.87,NNE,22,6.0,9.8,44,0.00,,,0.00,fowsr,2013-03-15 21:40:00,
2013-03-15 17:45:00,48.9,33.4,29.87,NE,45,4.5,8.3,44,0.00,,,0.00,fowsr,2013-03-15 21:45:00,
2013-03-15 17:50:00,48.9,33.4,29.86,NE,45,3.8,7.6,44,0.00,,,0.00,fowsr,2013-03-15 21:50:00,
2013-03-15 17:55:00,48.7,33.2,29.86,NE,45,3.1,6.0,44,0.00,,,0.00,fowsr,2013-03-15 21:55:00,
2013-03-15 18:00:00,48.6,33.1,29.85,ESE,112,3.8,6.0,44,0.00,,,0.00,fowsr,2013-03-15 22:00:00,
2013-03-15 18:05:00,48.4,32.9,29.85,East,90,4.5,6.0,44,0.00,,,0.00,fowsr,2013-03-15 22:05:00,
2013-03-15 18:10:00,48.2,33.1,29.86,NE,45,3.1,5.4,45,0.00,,,0.00,fowsr,2013-03-15 22:10:00,
2013-03-15 18:15:00,47.8,34.0,29.85,ENE,67,5.4,7.6,48,0.00,,,0.00,fowsr,2013-03-15 22:15:00,
2013-03-15 18:20:00,47.7,33.8,29.85,NE,45,6.0,9.2,48,0.00,,,0.00,fowsr,2013-03-15 22:20:00,
2013-03-15 18:25:00,47.3,33.9,29.85,NNE,22,5.4,8.3,49,0.00,,,0.00,fowsr,2013-03-15 22:25:00,
2013-03-15 18:30:00,47.1,34.4,29.85,NW,315,2.2,3.1,51,0.00,,,0.00,fowsr,2013-03-15 22:30:00,
2013-03-15 18:35:00,46.8,35.4,29.85,East,90,2.2,4.5,55,0.00,,,0.00,fowsr,2013-03-15 22:35:00,
2013-03-15 18:40:00,46.6,35.3,29.85,East,90,3.1,6.9,55,0.00,,,0.00,fowsr,2013-03-15 22:40:00,
2013-03-15 18:45:00,46.6,34.6,29.85,North,0,1.6,3.8,53,0.00,,,0.00,fowsr,2013-03-15 22:45:00,
2013-03-15 18:50:00,46.6,33.9,29.85,North,0,3.8,5.4,51,0.00,,,0.00,fowsr,2013-03-15 22:50:00,
2013-03-15 18:55:00,46.4,34.1,29.85,NW,315,4.5,7.6,52,0.00,,,0.00,fowsr,2013-03-15 22:55:00,
2013-03-15 19:00:00,46.2,33.9,29.85,NE,45,2.2,3.1,52,0.00,,,0.00,fowsr,2013-03-15 23:00:00,
2013-03-15 19:05:00,46.0,33.8,29.85,North,0,1.6,3.8,52,0.00,,,0.00,fowsr,2013-03-15 23:05:00,
2013-03-15 19:10:00,45.9,33.6,29.85,North,0,3.1,4.5,52,0.00,,,0.00,fowsr,2013-03-15 23:10:00,
2013-03-15 19:15:00,45.7,33.4,29.85,NE,45,2.2,3.8,52,0.00,,,0.00,fowsr,2013-03-15 23:15:00,
2013-03-15 19:20:00,45.5,33.3,29.85,NW,315,1.6,3.8,52,0.00,,,0.00,fowsr,2013-03-15 23:20:00,
2013-03-15 19:25:00,45.5,33.3,29.85,WSW,247,2.2,3.8,52,0.00,,,0.00,fowsr,2013-03-15 23:25:00,
2013-03-15 19:30:00,45.5,33.3,29.85,North,0,1.6,2.2,52,0.00,,,0.00,fowsr,2013-03-15 23:30:00,
2013-03-15 19:35:00,45.5,33.3,29.85,NE,45,2.2,3.8,52,0.00,,,0.00,fowsr,2013-03-15 23:35:00,
2013-03-15 19:40:00,45.5,32.9,29.85,NE,45,3.1,6.0,51,0.00,,,0.00,fowsr,2013-03-15 23:40:00,
2013-03-15 19:45:00,45.7,33.1,29.85,North,0,2.2,3.1,51,0.00,,,0.00,fowsr,2013-03-15 23:45:00,
2013-03-15 19:50:00,45.1,34.3,29.85,North,0,2.2,3.8,56,0.00,,,0.00,fowsr,2013-03-15 23:50:00,
2013-03-15 19:55:00,44.4,35.4,29.85,NNW,337,2.2,3.1,62,0.00,,,0.00,fowsr,2013-03-15 23:55:00,
2013-03-15 20:00:00,43.9,35.5,29.84,NW,315,1.6,3.1,64,0.00,,,0.00,fowsr,2013-03-16 00:00:00,
2013-03-15 20:05:00,43.5,35.5,29.84,NW,315,1.6,3.1,65,0.00,,,0.00,fowsr,2013-03-16 00:05:00,
2013-03-15 20:10:00,43.2,35.4,29.84,North,0,2.2,3.8,66,0.00,,,0.00,fowsr,2013-03-16 00:10:00,
2013-03-15 20:15:00,43.2,35.4,29.84,North,0,2.2,3.8,66,0.00,,,0.00,fowsr,2013-03-16 00:15:00,
2013-03-15 20:20:00,43.0,35.2,29.84,North,0,3.1,4.5,66,0.00,,,0.00,fowsr,2013-03-16 00:20:00,
2013-03-15 20:25:00,43.2,35.1,29.84,WNW,292,2.2,5.4,65,0.00,,,0.00,fowsr,2013-03-16 00:25:00,
2013-03-15 20:30:00,43.2,35.1,29.84,North,0,2.2,4.5,65,0.00,,,0.00,fowsr,2013-03-16 00:30:00,
2013-03-15 20:35:00,43.2,34.8,29.84,North,0,2.2,3.8,64,0.00,,,0.00,fowsr,2013-03-16 00:35:00,
2013-03-15 20:40:00,43.2,34.8,29.84,North,0,2.2,3.1,64,0.00,,,0.00,fowsr,2013-03-16 00:40:00,
2013-03-15 20:45:00,43.0,34.7,29.84,NE,45,2.2,3.8,64,0.00,,,0.00,fowsr,2013-03-16 00:45:00,
2013-03-15 20:50:00,43.0,34.7,29.84,North,0,2.2,4.5,64,0.00,,,0.00,fowsr,2013-03-16 00:50:00,
2013-03-15 20:55:00,43.0,34.7,29.84,North,0,2.2,4.5,64,0.00,,,0.00,fowsr,2013-03-16 00:55:00,
2013-03-15 21:00:00,43.2,34.8,29.84,North,0,3.1,4.5,64,0.00,,,0.00,fowsr,2013-03-16 01:00:00,
2013-03-15 21:05:00,43.2,34.8,29.84,WNW,292,2.2,3.8,64,0.00,,,0.00,fowsr,2013-03-16 01:05:00,
2013-03-15 21:10:00,43.2,34.6,29.84,North,0,2.2,4.5,63,0.00,,,0.00,fowsr,2013-03-16 01:10:00,
2013-03-15 21:15:00,43.2,34.6,29.84,WNW,292,2.2,4.5,63,0.00,,,0.00,fowsr,2013-03-16 01:15:00,
2013-03-15 21:20:00,43.2,34.6,29.84,East,90,2.2,4.5,63,0.00,,,0.00,fowsr,2013-03-16 01:20:00,
2013-03-15 21:25:00,43.3,34.4,29.84,North,0,3.1,4.5,62,0.00,,,0.00,fowsr,2013-03-16 01:25:00,
2013-03-15 21:30:00,43.3,34.4,29.84,North,0,2.2,3.8,62,0.00,,,0.00,fowsr,2013-03-16 01:30:00,
2013-03-15 21:35:00,43.3,34.4,29.84,North,0,2.2,3.8,62,0.00,,,0.00,fowsr,2013-03-16 01:35:00,
2013-03-15 21:40:00,43.2,34.3,29.84,NE,45,3.1,6.9,62,0.00,,,0.00,fowsr,2013-03-16 01:40:00,
2013-03-15 21:45:00,43.3,34.1,29.84,North,0,2.2,3.8,61,0.00,,,0.00,fowsr,2013-03-16 01:45:00,
2013-03-15 21:50:00,43.3,34.1,29.84,North,0,2.2,3.8,61,0.00,,,0.00,fowsr,2013-03-16 01:50:00,
2013-03-15 21:55:00,43.3,33.8,29.84,NE,45,2.2,3.8,60,0.00,,,0.00,fowsr,2013-03-16 01:55:00,
2013-03-15 22:00:00,43.3,34.1,29.84,North,0,1.6,2.2,61,0.00,,,0.00,fowsr,2013-03-16 02:00:00,
2013-03-15 22:05:00,43.2,34.3,29.84,North,0,0.7,2.2,62,0.00,,,0.00,fowsr,2013-03-16 02:05:00,
2013-03-15 22:10:00,43.2,34.3,29.84,NE,45,2.2,4.5,62,0.00,,,0.00,fowsr,2013-03-16 02:10:00,
2013-03-15 22:15:00,43.0,34.4,29.84,SE,135,1.6,2.2,63,0.00,,,0.00,fowsr,2013-03-16 02:15:00,
2013-03-15 22:20:00,42.8,34.5,29.84,North,0,0.7,1.6,64,0.00,,,0.00,fowsr,2013-03-16 02:20:00,
2013-03-15 22:25:00,42.8,34.5,29.85,North,0,4.5,7.6,64,0.00,,,0.00,fowsr,2013-03-16 02:25:00,
2013-03-15 22:30:00,42.8,34.5,29.85,NE,45,1.6,2.2,64,0.00,,,0.00,fowsr,2013-03-16 02:30:00,
2013-03-15 22:35:00,42.8,34.5,29.84,North,0,0.7,3.1,64,0.00,,,0.00,fowsr,2013-03-16 02:35:00,
2013-03-15 22:40:00,42.6,34.9,29.84,NE,45,1.6,2.2,66,0.00,,,0.00,fowsr,2013-03-16 02:40:00,
2013-03-15 22:45:00,42.6,34.9,29.85,North,0,0.7,1.6,66,0.00,,,0.00,fowsr,2013-03-16 02:45:00,
2013-03-15 22:50:00,42.3,34.5,29.85,North,0,0.0,1.6,66,0.00,,,0.00,fowsr,2013-03-16 02:50:00,
2013-03-15 22:55:00,42.3,34.5,29.85,NE,45,0.7,3.1,66,0.00,,,0.00,fowsr,2013-03-16 02:55:00,
2013-03-15 23:00:00,42.1,34.6,29.85,NE,45,1.6,3.1,67,0.00,,,0.00,fowsr,2013-03-16 03:00:00,
2013-03-15 23:05:00,41.9,34.5,29.85,North,0,0.7,1.6,67,0.00,,,0.00,fowsr,2013-03-16 03:05:00,
2013-03-15 23:10:00,41.7,34.3,29.85,NE,45,0.7,1.6,67,0.00,,,0.00,fowsr,2013-03-16 03:10:00,
2013-03-15 23:15:00,41.7,34.3,29.85,SE,135,0.0,0.7,67,0.00,,,0.00,fowsr,2013-03-16 03:15:00,
2013-03-15 23:20:00,41.5,34.1,29.85,SE,135,0.7,1.6,67,0.00,,,0.00,fowsr,2013-03-16 03:20:00,
2013-03-15 23:25:00,41.5,34.4,29.85,NE,45,0.7,1.6,68,0.00,,,0.00,fowsr,2013-03-16 03:25:00,
2013-03-15 23:30:00,41.5,34.4,29.85,North,0,0.7,1.6,68,0.00,,,0.00,fowsr,2013-03-16 03:30:00,
2013-03-15 23:35:00,41.4,34.5,29.85,NE,45,0.7,2.2,69,0.00,,,0.00,fowsr,2013-03-16 03:35:00,
2013-03-15 23:40:00,41.4,34.8,29.85,NE,45,0.7,3.1,70,0.00,,,0.00,fowsr,2013-03-16 03:40:00,
2013-03-15 23:45:00,41.4,34.8,29.85,East,90,0.7,1.6,70,0.00,,,0.00,fowsr,2013-03-16 03:45:00,
2013-03-15 23:50:00,41.4,34.8,29.85,NE,45,1.6,3.8,70,0.00,,,0.00,fowsr,2013-03-16 03:50:00,
2013-03-15 23:55:00,41.5,34.9,29.85,NE,45,0.7,1.6,70,0.00,,,0.00,fowsr,2013-03-16 03:55:00,